Wind_Speed
13 12 11 11 10 10 11 13 14 14 13 12 14 19 23 26 28 31 35 38 40 42 43 44 46 47 49 49 49 46 43 34 21 17 21 24 24 23 22 22 23 24 24 23
11 9 7 6 6 9 11 15 18 20 20 19 21 23 27 29 31 33 35 38 40 42 43 43 43 45 45 44 42 40 36 28 20 19 18 20 21 21 23 23 24 24 24 24
9 6 4 4 6 9 11 14 16 19 24 26 27 29 31 33 34 34 34 34 34 35 37 39 40 41 41 41 41 38 33 28 22 21 20 21 21 22 23 23 23 23 23 23
7 5 4 4 5 7 9 12 15 14 17 20 23 28 31 32 34 35 33 32 31 32 35 37 38 39 40 40 39 37 33 29 26 22 20 21 20 21 22 22 22 23 23 23
5 4 1 2 4 7 8 9 11 12 12 13 15 19 21 25 28 31 31 30 30 31 33 36 38 40 41 42 40 38 35 31 29 28 26 24 24 23 23 23 24 24 25 25
4 2 1 4 6 8 9 9 8 8 9 10 13 15 18 22 22 23 25 26 28 30 34 37 40 42 44 45 44 41 39 36 35 34 33 32 31 30 29 29 29 29 28 28
2 1 1 3 5 7 8 8 7 6 9 12 16 19 21 23 22 21 21 22 25 29 33 38 41 44 46 47 47 46 45 43 42 40 39 39 38 38 37 37 36 35 34 33
6 3 2 4 6 7 8 10 11 12 15 18 20 21 23 26 26 27 28 30 32 35 39 42 45 47 48 49 49 48 47 47 46 46 46 45 44 44 44 43 43 43 42 41
9 6 5 6 8 10 12 13 15 16 18 20 22 22 24 26 29 31 33 35 38 42 45 48 50 52 53 54 54 53 52 51 50 50 51 51 51 50 50 49 49 48 48 47
11 9 7 8 11 14 16 17 18 19 20 22 24 26 29 30 33 35 37 40 43 47 50 53 56 58 59 61 61 61 60 59 57 55 55 55 55 55 55 54 54 53 53 53
12 11 11 12 13 14 15 17 18 19 22 24 28 30 32 35 37 39 42 45 47 50 53 55 58 60 63 65 66 68 68 68 66 65 63 62 61 60 60 59 59 58 58 57
12 12 13 15 15 17 18 18 18 20 22 25 29 33 36 39 41 43 46 48 51 53 56 58 60 62 65 68 70 72 74 75 75 74 72 70 68 66 64 63 63 63 63 63
12 12 13 14 15 17 18 18 18 19 22 26 30 34 37 40 43 46 48 51 53 56 58 61 63 66 69 71 73 75 76 76 76 74 71 66 61 59 58 58 59 61 63 65
12 13 12 12 13 15 16 16 16 19 23 27 31 35 37 41 45 48 51 54 57 60 62 65 68 70 71 71 71 71 69 67 64 59 54 48 43 41 39 40 43 46 52 58
13 12 12 13 14 14 14 15 18 22 26 30 33 36 40 44 47 51 54 57 60 63 65 67 68 68 67 65 63 60 57 54 51 48 43 39 36 34 32 32 32 33 35 40
13 12 13 14 16 15 15 18 22 25 28 31 34 38 42 45 48 51 55 57 60 62 64 63 62 61 60 58 56 54 52 50 47 45 43 41 40 38 37 35 34 33 32 32
12 12 13 15 18 18 18 21 25 29 32 35 39 43 46 48 51 55 58 60 62 62 59 58 57 57 56 55 54 53 52 51 49 48 46 46 45 44 43 41 39 37 36 36
13 14 16 19 20 20 22 26 30 34 37 40 43 46 49 53 54 56 59 60 58 55 55 56 56 57 57 57 56 55 54 53 52 52 52 51 51 49 47 46 44 41 40 38
17 19 21 24 26 26 27 30 33 37 40 43 45 48 51 53 53 54 56 55 54 54 55 56 57 58 58 57 57 56 54 53 53 52 53 53 53 53 51 49 47 45 42 40
20 21 23 25 27 29 31 33 36 39 41 43 46 49 52 55 56 55 54 52 51 52 53 55 56 57 57 57 56 54 52 51 50 50 50 50 52 52 51 49 47 46 44 42
18 20 22 25 27 29 32 35 37 39 42 45 49 53 56 57 57 56 52 49 49 50 53 55 56 56 56 56 54 52 50 49 47 46 45 45 46 48 48 48 46 45 44 42
19 22 25 27 30 32 34 36 39 42 45 48 51 54 55 56 55 53 50 48 48 50 53 55 56 57 57 56 54 51 48 45 43 41 39 38 39 40 41 42 42 42 42 40
20 22 25 27 30 32 34 38 42 45 47 48 51 53 55 55 54 51 48 47 48 50 53 55 56 57 56 55 54 50 47 44 41 38 35 33 32 32 34 35 36 37 37 37
20 22 24 26 29 32 35 39 42 43 44 47 50 53 54 54 53 49 46 46 47 50 52 54 56 56 56 55 53 51 47 44 40 35 30 27 25 25 25 27 29 30 31 32
20 22 23 25 29 32 34 37 39 41 43 46 49 52 54 54 53 49 45 45 47 49 51 53 55 56 56 55 53 51 48 44 40 34 28 24 21 19 19 19 22 24 26 27
21 23 25 27 30 32 34 37 40 42 44 47 50 52 53 54 52 48 45 44 45 47 50 52 54 56 56 55 54 52 48 45 40 34 28 23 20 15 12 11 12 16 19 22
Wind_Direction
252 244 240 251 251 253 247 238 230 224 225 231 231 233 237 243 251 259 265 270 274 278 281 286 291 297 300 303 307 309 308 302 284 249 238 241 253 268 275 279 283 285 285 283
235 231 236 235 258 265 253 246 238 228 228 231 232 234 238 244 251 259 266 270 275 280 284 288 291 296 301 305 309 311 314 312 290 271 264 268 276 278 277 278 281 282 279 277
224 226 220 243 273 269 255 255 253 241 234 239 244 248 251 255 260 265 269 272 274 280 286 290 292 296 300 305 309 312 313 312 306 295 286 283 283 282 278 274 275 275 274 272
221 223 252 279 300 286 269 263 266 260 249 247 253 262 264 268 268 270 272 274 277 283 287 289 292 296 300 304 308 310 311 307 304 302 294 289 290 289 282 275 270 269 268 267
235 220 231 15 356 336 321 298 286 276 268 264 272 278 286 290 280 274 272 273 276 281 286 289 292 295 298 303 307 308 310 307 304 303 299 294 291 288 284 277 272 268 264 260
264 225 58 38 15 345 332 322 306 288 286 288 289 298 304 309 302 287 274 275 278 283 287 289 292 296 299 303 306 307 307 306 303 301 297 293 289 285 281 277 273 268 263 259
340 310 315 352 350 344 333 332 321 303 308 311 308 310 313 318 320 315 310 305 298 295 295 295 296 298 301 303 306 306 306 304 302 298 294 290 287 283 279 275 273 268 264 259
25 26 304 304 316 325 327 328 329 332 332 327 322 321 319 316 315 314 313 310 306 302 300 299 300 300 301 301 302 302 301 299 297 294 292 288 285 281 278 275 271 268 265 262
10 9 320 307 308 309 313 316 320 322 324 324 325 324 318 316 316 315 313 311 309 306 305 304 304 303 303 302 300 299 297 295 292 290 287 285 282 279 276 273 270 267 265 262
359 356 332 315 310 312 313 310 311 316 317 320 320 322 322 321 320 318 316 314 312 310 308 307 306 306 305 303 302 300 298 295 293 289 286 282 279 276 274 271 269 266 263 261
345 339 325 315 310 310 310 310 306 309 312 317 320 322 323 323 322 320 319 316 314 312 310 309 308 307 306 304 303 302 301 299 296 293 289 285 280 275 271 268 265 263 261 259
337 328 319 313 310 308 310 312 314 313 315 317 320 321 324 323 323 322 321 319 317 315 313 311 310 308 306 305 304 302 301 299 297 295 292 289 285 280 275 270 265 261 259 257
333 326 318 311 308 307 311 317 319 316 316 317 318 321 323 324 324 323 322 320 317 316 314 312 311 309 307 305 304 302 301 300 299 298 296 294 290 285 280 274 268 262 258 255
333 330 325 319 314 315 320 322 319 317 319 320 321 323 324 325 325 324 323 320 319 318 316 314 312 310 307 306 304 303 302 301 301 300 299 296 292 287 282 277 270 264 258 254
345 346 342 336 335 337 332 328 325 324 324 325 326 326 326 327 327 326 324 322 320 319 316 314 312 310 309 308 306 305 303 302 300 299 297 294 291 288 284 280 275 270 264 258
352 355 354 349 349 351 341 334 329 326 326 326 327 327 327 328 327 327 324 321 320 318 317 316 315 314 312 311 308 306 303 300 297 294 291 288 286 284 282 279 276 273 269 266
354 357 359 354 350 349 344 336 330 329 330 331 332 331 330 330 331 330 326 325 324 322 322 321 320 317 314 312 309 305 301 297 292 288 285 282 282 281 279 277 275 271 267 265
353 354 354 350 346 346 341 336 335 334 335 336 334 333 334 334 334 331 327 326 326 327 327 326 324 320 317 313 309 305 301 296 291 285 281 278 277 276 276 275 274 271 267 264
352 351 349 345 343 341 338 338 336 336 337 336 336 337 336 334 333 332 329 329 330 332 331 330 329 325 322 318 314 309 304 298 292 287 282 277 275 274 272 272 270 269 266 263
348 345 339 335 335 336 336 337 337 337 336 337 337 337 337 336 336 336 334 333 334 335 335 334 333 330 327 323 320 317 311 305 298 291 285 279 274 272 270 268 266 265 263 260
339 333 328 329 332 334 335 336 336 336 338 339 340 340 340 339 337 336 335 336 337 338 339 338 338 336 333 331 327 323 318 313 306 299 292 284 277 272 268 265 263 261 259 256
333 328 327 330 333 334 335 335 338 340 341 342 342 340 339 338 337 336 336 338 340 341 341 341 341 340 338 337 335 331 327 322 316 309 301 291 282 275 269 264 260 257 255 252
329 326 326 328 330 331 334 339 342 343 342 341 340 339 340 340 339 338 339 340 343 344 344 344 345 345 344 343 341 339 335 331 326 318 310 300 289 279 272 265 260 255 251 247
325 322 323 325 328 333 339 342 341 340 340 340 340 340 341 342 341 340 341 343 345 347 347 348 349 350 349 348 347 346 344 341 337 329 321 313 300 287 277 266 257 251 245 241
321 319 322 327 331 335 338 339 339 339 340 340 341 342 343 343 343 342 343 345 347 350 351 352 354 354 354 353 353 352 351 349 347 343 336 329 319 305 286 268 254 245 237 232
321 321 326 330 332 334 336 338 340 341 341 342 343 345 345 345 345 345 345 346 350 352 354 355 357 358 358 358 358 357 357 357 356 354 351 347 340 328 305 272 246 231 225 221
Height
5873 5874 5873 5874 5873 5873 5873 5873 5872 5873 5873 5873 5871 5870 5869 5869 5869 5868 5867 5865 5861 5858 5856 5853 5850 5846 5841 5835 5827 5820 5816 5808 5804 5804 5807 5811 5815 5816 5817 5817 5817 5816 5815 5815
5870 5870 5871 5870 5870 5870 5869 5869 5868 5869 5870 5869 5867 5866 5866 5865 5865 5865 5863 5860 5856 5852 5850 5848 5844 5840 5837 5832 5825 5821 5817 5812 5808 5806 5806 5808 5809 5810 5811 5811 5811 5810 5809 5809
5867 5868 5867 5868 5867 5866 5866 5865 5864 5865 5866 5866 5865 5863 5862 5861 5861 5860 5858 5856 5852 5849 5845 5842 5839 5835 5832 5828 5824 5819 5816 5812 5808 5805 5804 5804 5804 5804 5804 5804 5804 5803 5803 5802
5866 5866 5866 5866 5864 5863 5862 5862 5861 5861 5861 5862 5862 5859 5858 5857 5856 5854 5852 5849 5846 5843 5840 5836 5833 5829 5826 5823 5819 5815 5811 5807 5805 5802 5800 5799 5798 5797 5797 5796 5797 5796 5796 5795
5865 5865 5865 5864 5863 5862 5861 5859 5858 5858 5858 5858 5857 5855 5853 5850 5848 5846 5844 5842 5840 5837 5834 5830 5826 5822 5818 5814 5811 5808 5804 5801 5797 5795 5793 5792 5791 5791 5790 5789 5789 5789 5788 5788
5866 5865 5864 5863 5862 5861 5859 5858 5857 5856 5856 5856 5854 5852 5849 5844 5841 5838 5837 5835 5833 5830 5826 5822 5818 5813 5809 5804 5801 5798 5795 5792 5789 5787 5785 5784 5783 5782 5782 5781 5780 5780 5780 5780
5865 5864 5864 5862 5861 5860 5858 5857 5856 5855 5854 5852 5850 5847 5846 5841 5837 5834 5832 5830 5827 5823 5819 5814 5809 5804 5798 5793 5790 5786 5783 5781 5779 5777 5775 5774 5773 5772 5771 5771 5770 5769 5769 5770
5864 5864 5862 5861 5859 5858 5857 5856 5854 5852 5850 5848 5845 5843 5841 5836 5832 5829 5826 5823 5818 5814 5809 5804 5799 5793 5788 5783 5779 5776 5772 5769 5766 5764 5762 5760 5759 5758 5758 5757 5757 5756 5756 5757
5863 5863 5861 5859 5858 5857 5855 5854 5852 5850 5848 5845 5842 5839 5835 5831 5826 5822 5818 5813 5808 5802 5797 5791 5785 5779 5774 5769 5764 5761 5758 5756 5753 5750 5746 5744 5743 5742 5741 5741 5741 5741 5741 5742
5863 5862 5860 5858 5857 5855 5854 5852 5850 5848 5844 5841 5837 5833 5830 5825 5820 5815 5810 5804 5798 5792 5786 5779 5772 5765 5758 5751 5745 5741 5738 5736 5733 5731 5728 5726 5723 5721 5721 5721 5722 5722 5723 5724
5861 5860 5858 5857 5855 5853 5852 5849 5847 5844 5840 5836 5832 5831 5826 5820 5815 5809 5803 5796 5790 5783 5776 5768 5760 5752 5744 5735 5727 5720 5714 5710 5708 5705 5704 5702 5700 5699 5698 5699 5699 5701 5702 5704
5860 5859 5857 5855 5853 5850 5848 5846 5843 5841 5836 5832 5829 5827 5820 5814 5808 5802 5795 5788 5780 5772 5764 5756 5747 5739 5729 5720 5710 5702 5693 5687 5681 5677 5674 5672 5671 5670 5671 5672 5674 5676 5678 5681
5859 5857 5855 5852 5852 5848 5845 5842 5839 5836 5833 5829 5825 5823 5814 5808 5801 5794 5787 5778 5770 5762 5753 5744 5734 5724 5714 5704 5694 5684 5674 5665 5658 5653 5648 5645 5642 5641 5641 5643 5645 5648 5651 5655
5858 5855 5853 5850 5847 5844 5841 5839 5836 5833 5830 5825 5820 5814 5808 5802 5794 5786 5778 5768 5759 5749 5740 5729 5719 5709 5698 5688 5678 5668 5658 5649 5641 5634 5629 5626 5623 5621 5620 5620 5620 5622 5625 5628
5856 5853 5849 5846 5844 5841 5838 5836 5832 5829 5825 5820 5814 5808 5801 5794 5786 5777 5767 5757 5747 5737 5727 5716 5705 5693 5683 5672 5662 5653 5644 5636 5628 5622 5618 5614 5611 5610 5608 5607 5606 5605 5606 5607
5854 5851 5848 5845 5842 5840 5837 5833 5829 5825 5820 5815 5809 5803 5795 5788 5779 5770 5759 5748 5737 5726 5714 5702 5690 5679 5668 5657 5648 5639 5631 5623 5616 5611 5606 5602 5599 5598 5596 5595 5594 5594 5594 5594
5853 5850 5847 5844 5841 5838 5835 5830 5825 5819 5814 5808 5801 5794 5785 5777 5769 5757 5744 5733 5722 5710 5699 5688 5677 5665 5654 5644 5634 5625 5616 5609 5602 5597 5592 5588 5585 5583 5581 5581 5581 5581 5581 5581
5851 5848 5845 5842 5840 5836 5834 5826 5819 5812 5806 5800 5792 5784 5775 5765 5756 5746 5733 5721 5710 5699 5687 5675 5663 5651 5639 5628 5618 5608 5600 5592 5585 5579 5575 5571 5568 5566 5565 5564 5564 5565 5566 5567
5848 5845 5841 5837 5834 5831 5827 5820 5814 5807 5800 5793 5784 5776 5767 5757 5749 5739 5724 5711 5698 5687 5675 5662 5649 5636 5623 5611 5600 5590 5581 5572 5565 5559 5554 5551 5548 5547 5546 5546 5547 5548 5549 5552
5845 5842 5839 5835 5830 5826 5822 5815 5808 5802 5795 5787 5778 5769 5759 5747 5735 5726 5713 5700 5689 5677 5664 5652 5639 5624 5610 5597 5584 5573 5562 5552 5544 5538 5533 5530 5527 5526 5526 5527 5529 5530 5533 5536
5844 5841 5837 5832 5827 5822 5816 5809 5804 5797 5790 5780 5769 5758 5747 5737 5726 5715 5704 5692 5680 5668 5656 5643 5629 5614 5598 5584 5570 5557 5545 5535 5526 5518 5513 5509 5507 5506 5506 5508 5510 5513 5516 5520
5841 5837 5832 5827 5822 5818 5810 5804 5797 5790 5780 5770 5760 5751 5742 5731 5719 5707 5696 5684 5673 5661 5649 5635 5620 5605 5589 5573 5558 5545 5532 5521 5511 5502 5495 5491 5488 5487 5488 5490 5492 5496 5500 5504
5838 5834 5828 5823 5819 5812 5805 5797 5789 5780 5772 5764 5756 5747 5736 5725 5713 5701 5689 5678 5667 5655 5642 5628 5613 5598 5582 5565 5550 5536 5523 5510 5499 5490 5482 5477 5473 5472 5472 5474 5476 5480 5485 5490
5834 5829 5824 5819 5813 5806 5799 5792 5785 5777 5770 5762 5752 5741 5730 5718 5706 5694 5683 5672 5661 5649 5636 5622 5608 5593 5577 5561 5545 5529 5515 5502 5490 5480 5472 5466 5462 5460 5459 5460 5463 5467 5472 5477
5829 5824 5820 5815 5809 5803 5797 5790 5783 5775 5767 5758 5748 5736 5724 5712 5700 5688 5678 5667 5656 5644 5631 5618 5603 5588 5573 5557 5541 5525 5511 5497 5485 5474 5466 5460 5455 5452 5450 5451 5453 5457 5462 5467
5823 5819 5815 5810 5805 5799 5793 5786 5778 5770 5761 5752 5741 5731 5719 5707 5695 5683 5673 5663 5652 5640 5628 5615 5601 5586 5570 5555 5539 5524 5509 5496 5484 5473 5464 5457 5452 5448 5445 5445 5447 5450 5455 5460